Time,TemperatureF,DewpointF,PressureIn,WindDirection,WindDirectionDegrees,WindSpeedMPH,WindSpeedGustMPH,Humidity,HourlyPrecipIn,Conditions,Clouds,dailyrainin,SoftwareType,DateUTC
2013-02-01 00:02:00,14.6,6.0,30.44,West,261,2.0,-999.0,69,-99.99,,,0.00,weatherlink.com 1.10,2013-02-01 07:02:00,
2013-02-01 00:17:00,14.9,6.0,30.44,WSW,250,5.0,-999.0,69,-99.99,,,0.00,weatherlink.com 1.10,2013-02-01 07:17:00,
2013-02-01 00:32:00,15.1,6.0,30.44,NE,46,1.0,-999.0,68,-99.99,,,0.00,weatherlink.com 1.10,2013-02-01 07:32:00,
2013-02-01 00:47:00,15.2,6.0,30.44,SSW,205,2.0,-999.0,68,-99.99,,,0.00,weatherlink.com 1.10,2013-02-01 07:47:00,
2013-02-01 01:02:00,15.3,6.0,30.43,SSE,152,1.0,-999.0,68,-99.99,,,0.00,weatherlink.com 1.10,2013-02-01 08:02:00,
2013-02-01 01:17:00,15.3,6.0,30.42,ESE,111,2.0,-999.0,68,-99.99,,,0.00,weatherlink.com 1.10,2013-02-01 08:17:00,
2013-02-01 01:32:00,15.6,7.0,30.40,SSE,155,1.0,-999.0,68,-99.99,,,0.00,weatherlink.com 1.10,2013-02-01 08:32:00,
2013-02-01 01:47:00,16.1,7.0,30.41,ESE,117,3.0,-999.0,67,-99.99,,,0.00,weatherlink.com 1.10,2013-02-01 08:47:00,
2013-02-01 02:02:00,16.2,7.0,30.40,NNE,33,2.0,-999.0,67,-99.99,,,0.00,weatherlink.com 1.10,2013-02-01 09:02:00,
2013-02-01 02:17:00,16.3,7.0,30.40,ESE,107,9.0,-999.0,67,-99.99,,,0.00,weatherlink.com 1.10,2013-02-01 09:17:00,
2013-02-01 02:32:00,16.7,7.0,30.41,SE,129,8.0,-999.0,67,-99.99,,,0.00,weatherlink.com 1.10,2013-02-01 09:32:00,
2013-02-01 02:47:00,16.7,7.0,30.41,ESE,114,6.0,-999.0,66,-99.99,,,0.00,weatherlink.com 1.10,2013-02-01 09:47:00,
2013-02-01 03:02:00,16.8,7.0,30.40,ESE,112,2.0,-999.0,66,-99.99,,,0.00,weatherlink.com 1.10,2013-02-01 10:02:00,
2013-02-01 03:17:00,16.7,7.0,30.41,East,99,1.0,-999.0,66,-99.99,,,0.00,weatherlink.com 1.10,2013-02-01 10:17:00,
2013-02-01 03:32:00,16.6,8.0,30.41,NE,45,2.0,-999.0,68,-99.99,,,0.00,weatherlink.com 1.10,2013-02-01 10:32:00,
2013-02-01 03:47:00,17.0,8.0,30.41,ENE,67,4.0,-999.0,69,-99.99,,,0.00,weatherlink.com 1.10,2013-02-01 10:47:00,
2013-02-01 04:02:00,17.2,9.0,30.41,ESE,123,2.0,-999.0,69,-99.99,,,0.00,weatherlink.com 1.10,2013-02-01 11:02:00,
2013-02-01 04:17:00,17.3,9.0,30.41,SE,142,2.0,-999.0,69,-99.99,,,0.00,weatherlink.com 1.10,2013-02-01 11:17:00,
2013-02-01 04:32:00,17.7,9.0,30.42,South,180,2.0,-999.0,69,-99.99,,,0.00,weatherlink.com 1.10,2013-02-01 11:32:00,
2013-02-01 04:47:00,17.9,9.0,30.41,East,96,1.0,-999.0,69,-99.99,,,0.00,weatherlink.com 1.10,2013-02-01 11:47:00,
2013-02-01 05:02:00,18.0,10.0,30.41,East,98,2.0,-999.0,70,-99.99,,,0.00,weatherlink.com 1.10,2013-02-01 12:02:00,
2013-02-01 05:17:00,18.2,10.0,30.42,East,97,2.0,-999.0,70,-99.99,,,0.00,weatherlink.com 1.10,2013-02-01 12:17:00,
2013-02-01 05:32:00,18.0,10.0,30.42,ESE,121,0.0,-999.0,71,-99.99,,,0.00,weatherlink.com 1.10,2013-02-01 12:32:00,
2013-02-01 05:47:00,17.8,10.0,30.42,East,82,1.0,-999.0,72,-99.99,,,0.00,weatherlink.com 1.10,2013-02-01 12:47:00,
2013-02-01 06:02:00,17.9,10.0,30.42,East,92,3.0,-999.0,71,-99.99,,,0.00,weatherlink.com 1.10,2013-02-01 13:02:00,
2013-02-01 06:17:00,18.0,10.0,30.42,NE,51,5.0,-999.0,70,-99.99,,,0.00,weatherlink.com 1.10,2013-02-01 13:17:00,
2013-02-01 06:32:00,18.2,10.0,30.41,ESE,123,1.0,-999.0,69,-99.99,,,0.00,weatherlink.com 1.10,2013-02-01 13:32:00,
2013-02-01 06:47:00,18.1,9.0,30.42,East,96,2.0,-999.0,68,-99.99,,,0.00,weatherlink.com 1.10,2013-02-01 13:47:00,
2013-02-01 07:18:00,18.2,9.0,30.42,East,96,1.0,-999.0,68,-99.99,,,0.00,weatherlink.com 1.10,2013-02-01 14:18:00,
2013-02-01 07:32:00,18.4,10.0,30.42,ESE,108,2.0,-999.0,69,-99.99,,,0.00,weatherlink.com 1.10,2013-02-01 14:32:00,
2013-02-01 07:48:00,18.4,10.0,30.42,SE,132,0.0,-999.0,71,-99.99,,,0.00,weatherlink.com 1.10,2013-02-01 14:48:00,
2013-02-01 08:02:00,18.4,10.0,30.42,SE,145,0.0,-999.0,71,-99.99,,,0.00,weatherlink.com 1.10,2013-02-01 15:02:00,
2013-02-01 08:17:00,18.6,10.0,30.41,East,90,1.0,-999.0,69,-99.99,,,0.00,weatherlink.com 1.10,2013-02-01 15:17:00,
2013-02-01 08:32:00,19.7,9.0,30.42,ENE,69,3.0,-999.0,64,-99.99,,,0.00,weatherlink.com 1.10,2013-02-01 15:32:00,
2013-02-01 08:47:00,19.7,10.0,30.42,East,82,0.0,-999.0,66,-99.99,,,0.00,weatherlink.com 1.10,2013-02-01 15:47:00,
2013-02-01 09:02:00,19.9,9.0,30.42,ESE,105,4.0,-999.0,63,-99.99,,,0.00,weatherlink.com 1.10,2013-02-01 16:02:00,
2013-02-01 09:17:00,20.6,9.0,30.42,ESE,107,1.0,-999.0,62,-99.99,,,0.00,weatherlink.com 1.10,2013-02-01 16:17:00,
2013-02-01 09:32:00,21.1,10.0,30.41,NE,51,4.0,-999.0,62,-99.99,,,0.00,weatherlink.com 1.10,2013-02-01 16:32:00,
2013-02-01 09:47:00,21.4,9.0,30.42,SE,135,0.0,-999.0,60,-99.99,,,0.00,weatherlink.com 1.10,2013-02-01 16:47:00,
2013-02-01 10:02:00,21.7,8.0,30.41,ENE,69,1.0,-999.0,57,-99.99,,,0.00,weatherlink.com 1.10,2013-02-01 17:02:00,
2013-02-01 10:17:00,22.1,9.0,30.42,SSW,192,0.0,-999.0,57,-99.99,,,0.00,weatherlink.com 1.10,2013-02-01 17:17:00,
2013-02-01 10:32:00,22.7,9.0,30.42,ESE,121,1.0,-999.0,57,-99.99,,,0.00,weatherlink.com 1.10,2013-02-01 17:32:00,
2013-02-01 10:47:00,23.1,9.0,30.41,SSW,196,1.0,-999.0,56,-99.99,,,0.00,weatherlink.com 1.10,2013-02-01 17:47:00,
2013-02-01 11:17:00,23.6,8.0,30.39,East,88,7.0,-999.0,52,-99.99,,,0.00,weatherlink.com 1.10,2013-02-01 18:17:00,
2013-02-01 11:32:00,23.5,9.0,30.39,ESE,109,1.0,-999.0,53,-99.99,,,0.00,weatherlink.com 1.10,2013-02-01 18:32:00,
2013-02-01 11:47:00,23.5,9.0,30.38,SE,142,2.0,-999.0,53,-99.99,,,0.00,weatherlink.com 1.10,2013-02-01 18:47:00,
2013-02-01 12:02:00,24.2,9.0,30.38,ENE,76,2.0,-999.0,52,-99.99,,,0.00,weatherlink.com 1.10,2013-02-01 19:02:00,
2013-02-01 12:17:00,25.1,9.0,30.37,SSE,161,4.0,-999.0,50,-99.99,,,0.00,weatherlink.com 1.10,2013-02-01 19:17:00,
2013-02-01 12:32:00,24.4,9.0,30.36,ENE,59,5.0,-999.0,52,-99.99,,,0.00,weatherlink.com 1.10,2013-02-01 19:32:00,
2013-02-01 12:47:00,23.8,8.0,30.36,East,95,2.0,-999.0,52,-99.99,,,0.00,weatherlink.com 1.10,2013-02-01 19:47:00,
2013-02-01 13:02:00,24.1,9.0,30.36,East,81,1.0,-999.0,52,-99.99,,,0.00,weatherlink.com 1.10,2013-02-01 20:02:00,
2013-02-01 13:17:00,24.7,10.0,30.35,NE,55,2.0,-999.0,54,-99.99,,,0.00,weatherlink.com 1.10,2013-02-01 20:17:00,
2013-02-01 13:32:00,24.4,9.0,30.35,SE,144,1.0,-999.0,51,-99.99,,,0.00,weatherlink.com 1.10,2013-02-01 20:32:00,
2013-02-01 13:47:00,24.3,9.0,30.35,North,355,7.0,-999.0,52,-99.99,,,0.00,weatherlink.com 1.10,2013-02-01 20:47:00,
2013-02-01 14:16:00,24.7,10.0,30.36,ENE,69,3.0,-999.0,53,-99.99,,,0.00,weatherlink.com 1.10,2013-02-01 21:16:00,
2013-02-01 14:31:00,23.7,9.0,30.36,ENE,64,2.0,-999.0,53,-99.99,,,0.00,weatherlink.com 1.10,2013-02-01 21:31:00,
2013-02-01 14:46:00,22.8,9.0,30.36,ESE,109,5.0,-999.0,55,-99.99,,,0.00,weatherlink.com 1.10,2013-02-01 21:46:00,
2013-02-01 15:02:00,22.1,9.0,30.36,East,88,2.0,-999.0,57,-99.99,,,0.00,weatherlink.com 1.10,2013-02-01 22:02:00,
2013-02-01 15:17:00,21.7,8.0,30.36,ESE,102,5.0,-999.0,55,-99.99,,,0.00,weatherlink.com 1.10,2013-02-01 22:17:00,
2013-02-01 15:32:00,21.8,9.0,30.36,East,82,2.0,-999.0,57,-99.99,,,0.00,weatherlink.com 1.10,2013-02-01 22:32:00,
2013-02-01 15:47:00,21.9,7.0,30.37,ESE,107,4.0,-999.0,54,-99.99,,,0.00,weatherlink.com 1.10,2013-02-01 22:47:00,
2013-02-01 16:02:00,21.5,8.0,30.36,East,101,4.0,-999.0,55,-99.99,,,0.00,weatherlink.com 1.10,2013-02-01 23:02:00,
2013-02-01 16:17:00,21.2,7.0,30.37,ESE,109,2.0,-999.0,55,-99.99,,,0.00,weatherlink.com 1.10,2013-02-01 23:17:00,
2013-02-01 16:32:00,20.8,8.0,30.37,East,91,6.0,-999.0,58,-99.99,,,0.00,weatherlink.com 1.10,2013-02-01 23:32:00,
2013-02-01 16:47:00,20.4,8.0,30.39,ESE,114,2.0,-999.0,59,-99.99,,,0.00,weatherlink.com 1.10,2013-02-01 23:47:00,
2013-02-01 17:02:00,20.0,8.0,30.40,NE,44,6.0,-999.0,60,-99.99,,,0.00,weatherlink.com 1.10,2013-02-02 00:02:00,
2013-02-01 17:17:00,19.7,8.0,30.40,WSW,248,4.0,-999.0,61,-99.99,,,0.00,weatherlink.com 1.10,2013-02-02 00:17:00,
2013-02-01 17:32:00,19.3,8.0,30.42,East,92,7.0,-999.0,61,-99.99,,,0.00,weatherlink.com 1.10,2013-02-02 00:32:00,
2013-02-01 17:47:00,19.0,7.0,30.41,ESE,103,4.0,-999.0,61,-99.99,,,0.00,weatherlink.com 1.10,2013-02-02 00:47:00,
2013-02-01 18:02:00,18.7,8.0,30.42,ESE,105,0.0,-999.0,64,-99.99,,,0.00,weatherlink.com 1.10,2013-02-02 01:02:00,
2013-02-01 18:17:00,18.2,9.0,30.43,ENE,67,4.0,-999.0,67,-99.99,,,0.00,weatherlink.com 1.10,2013-02-02 01:17:00,
2013-02-01 18:32:00,17.9,9.0,30.44,East,100,4.0,-999.0,67,-99.99,,,0.00,weatherlink.com 1.10,2013-02-02 01:32:00,
2013-02-01 18:47:00,18.1,8.0,30.43,East,86,3.0,-999.0,65,-99.99,,,0.00,weatherlink.com 1.10,2013-02-02 01:47:00,
2013-02-01 19:02:00,18.1,7.0,30.42,ENE,78,7.0,-999.0,62,-99.99,,,0.00,weatherlink.com 1.10,2013-02-02 02:02:00,
2013-02-01 19:17:00,18.2,7.0,30.43,ESE,112,1.0,-999.0,61,-99.99,,,0.00,weatherlink.com 1.10,2013-02-02 02:17:00,
2013-02-01 19:32:00,18.1,7.0,30.43,WSW,237,2.0,-999.0,62,-99.99,,,0.00,weatherlink.com 1.10,2013-02-02 02:32:00,
2013-02-01 19:47:00,17.9,7.0,30.43,East,101,1.0,-999.0,63,-99.99,,,0.00,weatherlink.com 1.10,2013-02-02 02:47:00,
2013-02-01 20:02:00,18.0,7.0,30.43,East,84,3.0,-999.0,63,-99.99,,,0.00,weatherlink.com 1.10,2013-02-02 03:02:00,
2013-02-01 20:17:00,17.9,7.0,30.43,SE,128,1.0,-999.0,63,-99.99,,,0.00,weatherlink.com 1.10,2013-02-02 03:17:00,
2013-02-01 20:32:00,18.0,7.0,30.42,ESE,119,3.0,-999.0,63,-99.99,,,0.00,weatherlink.com 1.10,2013-02-02 03:32:00,
2013-02-01 20:47:00,18.0,8.0,30.41,ENE,60,5.0,-999.0,64,-99.99,,,0.00,weatherlink.com 1.10,2013-02-02 03:47:00,
2013-02-01 21:02:00,17.7,7.0,30.41,East,93,5.0,-999.0,63,-99.99,,,0.00,weatherlink.com 1.10,2013-02-02 04:02:00,
2013-02-01 21:17:00,17.9,7.0,30.41,NW,323,2.0,-999.0,63,-99.99,,,0.00,weatherlink.com 1.10,2013-02-02 04:17:00,
2013-02-01 21:32:00,17.7,7.0,30.43,North,5,4.0,-999.0,64,-99.99,,,0.00,weatherlink.com 1.10,2013-02-02 04:32:00,
2013-02-01 21:47:00,17.6,7.0,30.43,ESE,118,2.0,-999.0,63,-99.99,,,0.00,weatherlink.com 1.10,2013-02-02 04:47:00,
2013-02-01 22:02:00,17.7,7.0,30.44,ESE,103,4.0,-999.0,63,-99.99,,,0.00,weatherlink.com 1.10,2013-02-02 05:02:00,
2013-02-01 22:19:00,17.7,7.0,30.44,ESE,114,6.0,-999.0,62,-99.99,,,0.00,weatherlink.com 1.10,2013-02-02 05:19:00,
2013-02-01 22:32:00,17.8,7.0,30.45,ESE,107,2.0,-999.0,62,-99.99,,,0.00,weatherlink.com 1.10,2013-02-02 05:32:00,
2013-02-01 22:47:00,17.5,6.0,30.46,North,349,4.0,-999.0,62,-99.99,,,0.00,weatherlink.com 1.10,2013-02-02 05:47:00,
2013-02-01 23:02:00,17.4,6.0,30.46,ENE,72,1.0,-999.0,62,-99.99,,,0.00,weatherlink.com 1.10,2013-02-02 06:02:00,
2013-02-01 23:17:00,17.4,6.0,30.46,North,11,2.0,-999.0,62,-99.99,,,0.00,weatherlink.com 1.10,2013-02-02 06:17:00,
2013-02-01 23:32:00,17.2,6.0,30.48,ENE,76,3.0,-999.0,62,-99.99,,,0.00,weatherlink.com 1.10,2013-02-02 06:32:00,
2013-02-01 23:47:00,17.1,6.0,30.48,ENE,59,1.0,-999.0,62,-99.99,,,0.00,weatherlink.com 1.10,2013-02-02 06:47:00,